Location: Hawks Ness
(60.2333°N, 1.1667°W)
Time: 10:21:04
(UTC+00:00)

CZ-2C R/B - Pass Details

Date: 22 October 2019
Orbit: 668 x 784 km, 98.1° (Epoch: 19 November)

Event Time Altitude Azimuth Distance (km) Brightness Sun altitude
Rises 05:51:30 0° 16° (NNE) 3,286 5.9 -9.2°
Reaches altitude 10° 05:53:54 10° 11° (N) 2,358 5.1 -8.9°
Maximum altitude 05:58:52 46° 299° (WNW) 1,047 2.8 -8.3°
Drops below altitude 10° 06:03:47 10° 228° (SW) 2,332 4.6 -7.7°
Sets 06:06:09 0° 222° (SW) 3,247 5.4 -7.4°
